Location: Mount Cross
(36.6390°N, 79.4878°W)
Time: 19:54:17
(UTC+00:00)

Courier 1B Rocket - Pass Details

Date: 22 March 2023
Orbit: 920 x 1202 km, 28.2° (Epoch: 05 June)

Event Time Altitude Azimuth Distance (km) Brightness Sun altitude
Rises 05:06:09 0° 258° (WSW) 3,608 - -52.6°
Reaches altitude 10° 05:08:58 10° 250° (WSW) 2,637 - -52.6°
Maximum altitude 05:14:44 38° 184° (S) 1,361 - -52.8°
Drops below altitude 10° 05:20:26 10° 118° (ESE) 2,607 - -52.8°
Sets 05:23:13 0° 110° (ESE) 3,563 - -52.8°
